RH
48 48 48 47 47 46 44 44 44 44 45 47 47 48 48 47 47 47 46 45 43 42 42 41 40 39 38 36 35 32 30 29 29 30 30 31 32 32 32 32 33 41 43 36 30 28 25 22 20 21 23 23 23 24 25 26 24 24 24 24 24 24 24
48 48 49 49 48 48 47 45 44 44 44 45 46 47 48 48 48 47 46 46 44 42 42 41 41 41 40 39 38 36 34 32 30 31 31 30 32 32 33 33 33 38 45 46 40 35 32 27 23 23 23 23 24 24 25 25 25 25 25 25 26 25 24
51 50 50 50 50 50 49 48 46 45 44 44 45 46 47 47 47 47 47 46 45 44 42 42 41 41 42 42 41 39 38 36 34 32 32 32 32 33 34 34 34 38 45 51 50 45 38 33 29 27 26 25 25 25 24 25 25 25 26 26 27 26 25
54 53 53 52 52 51 51 51 48 47 45 44 44 45 46 47 47 47 47 46 46 45 43 43 42 42 42 43 43 42 41 41 39 37 36 35 35 35 36 36 35 38 44 52 57 53 46 41 35 31 30 28 27 28 27 26 26 26 27 27 27 26 26
58 57 56 54 54 53 53 53 51 50 48 46 45 45 45 47 47 47 47 47 47 47 46 45 43 43 43 44 44 45 45 44 43 42 41 40 40 40 41 41 40 41 46 54 60 60 54 48 41 37 34 31 30 30 30 29 29 29 28 28 28 27 29
60 61 60 58 57 57 56 56 55 53 51 48 47 47 46 47 48 49 49 48 48 48 48 47 45 45 45 46 47 47 48 48 46 46 46 45 46 47 49 54 54 53 55 58 62 65 61 53 47 42 38 35 32 30 32 33 32 31 30 30 32 33 35
55 58 60 61 61 60 59 58 58 57 54 52 49 48 48 48 49 50 50 51 50 50 50 50 49 49 49 49 50 49 50 49 49 50 50 51 53 56 60 66 69 68 68 66 67 70 68 60 53 48 44 40 36 34 35 35 36 37 37 37 37 38 39
52 52 54 57 60 61 62 61 60 59 57 54 52 50 49 49 50 52 52 52 53 52 53 53 52 53 54 53 52 51 51 51 52 55 57 59 61 66 70 74 77 78 77 75 74 74 73 66 58 53 50 46 44 46 45 42 41 43 42 41 40 41 43
63 61 58 58 58 59 62 63 63 62 60 58 55 52 51 51 52 54 55 56 56 56 57 57 58 58 57 57 55 53 53 53 53 57 62 65 69 72 76 79 82 84 83 82 80 78 76 72 66 61 58 55 52 50 48 45 45 47 46 46 46 46 48
74 74 73 72 69 67 67 66 65 66 65 65 63 59 56 56 57 58 59 61 62 62 62 62 61 61 59 59 58 57 57 57 57 58 59 64 69 73 78 83 85 86 85 84 83 81 78 76 73 68 62 58 54 49 48 48 49 51 52 54 57 57 53
78 80 81 81 81 80 79 76 75 74 72 72 73 74 71 66 65 65 66 67 68 68 68 67 65 64 63 62 61 61 61 60 60 61 60 62 66 69 72 78 83 86 86 85 83 81 79 77 76 71 64 59 55 53 52 51 50 55 58 61 67 67 59
79 80 82 83 84 85 85 85 84 83 82 84 88 90 88 82 76 74 73 73 74 73 73 72 71 69 68 66 65 65 65 65 64 63 63 64 66 68 69 70 73 78 81 83 84 81 79 77 74 71 66 61 58 56 55 55 56 59 60 62 68 70 64
77 79 80 82 84 86 87 87 87 87 90 96 99 98 97 96 92 86 81 79 79 79 78 77 77 76 75 73 70 69 69 70 70 69 68 68 68 70 71 71 73 75 74 75 79 80 79 77 74 71 66 60 58 57 58 62 64 62 62 65 67 65 60
78 79 80 82 84 86 87 87 89 94 97 100 101 99 97 99 100 97 92 86 82 81 81 80 80 80 80 79 77 76 75 75 76 78 78 78 77 77 78 78 81 85 83 79 78 79 79 76 71 67 63 58 56 55 56 61 62 61 61 61 59 56 56
82 82 81 82 83 85 85 84 88 98 102 100 100 100 98 99 100 100 99 96 90 85 82 81 82 82 82 83 82 80 80 80 81 84 86 88 87 87 87 87 86 89 92 91 86 82 79 77 72 66 62 59 56 53 52 51 50 50 51 53 57 62 66
84 84 84 83 83 86 86 82 86 97 102 100 100 100 98 100 101 100 100 100 98 94 89 85 85 84 83 85 85 83 85 86 86 89 93 96 96 95 95 95 91 91 95 97 95 90 84 80 74 69 65 60 56 55 52 51 52 54 56 64 73 77 76
82 83 86 86 84 87 87 82 85 96 102 100 100 100 100 101 100 98 99 101 100 99 98 95 93 91 89 88 87 87 92 96 96 95 96 98 100 101 100 99 97 98 100 100 100 98 93 89 84 81 78 71 65 60 53 54 64 69 69 75 83 85 82
83 80 83 86 84 86 87 82 80 89 98 101 100 100 101 100 99 96 96 100 101 99 100 100 98 97 97 97 95 93 97 101 100 98 100 101 101 102 101 101 100 101 101 100 101 101 99 98 97 96 95 91 88 83 71 63 66 69 72 80 84 83 82
82 78 77 80 80 79 79 76 69 73 90 101 99 99 101 100 101 100 98 99 100 99 100 101 101 101 100 99 99 98 100 102 100 100 100 100 101 102 101 101 100 99 98 98 99 99 99 99 100 101 101 99 99 100 94 85 78 72 73 82 84 82 85
77 76 73 72 73 70 70 70 64 63 79 95 95 95 98 98 98 100 100 99 98 96 95 94 95 98 101 102 102 101 101 101 100 101 101 100 102 102 98 96 96 95 95 94 93 90 89 92 95 98 100 100 100 102 101 98 95 89 83 83 85 87 90
69 68 66 65 65 63 60 60 58 54 62 80 92 94 94 94 95 96 99 101 100 98 96 93 88 88 90 95 98 100 101 99 93 92 97 101 100 94 90 92 93 91 91 92 91 88 88 88 89 91 94 96 97 98 97 97 100 100 97 93 91 91 93
67 67 63 56 51 50 50 50 52 49 48 61 80 88 88 89 92 93 95 99 101 100 100 98 94 90 86 85 89 95 99 94 84 81 89 99 100 95 93 95 94 90 91 93 93 93 92 90 89 87 86 84 84 83 81 81 83 87 95 100 99 96 95
79 77 71 62 55 58 62 65 68 68 65 68 79 88 91 91 91 92 94 97 100 101 102 103 101 99 96 91 91 95 96 92 87 84 87 92 95 96 98 101 99 95 94 94 94 95 94 91 88 87 84 82 81 78 73 70 68 68 77 90 98 99 98
86 86 84 81 77 76 79 82 84 83 83 83 85 89 95 97 94 90 85 81 79 80 81 85 91 98 101 100 99 99 98 96 95 93 90 87 87 90 93 97 101 101 99 97 96 96 96 93 90 88 86 82 77 74 72 73 73 71 72 78 84 90 97
89 89 91 92 91 90 90 89 86 81 79 79 78 77 84 92 92 87 81 77 75 72 67 66 73 82 88 92 96 98 98 97 95 94 94 93 93 94 95 96 98 100 101 101 100 98 97 96 93 90 86 79 74 74 80 85 86 85 84 84 86 90 94
91 93 95 95 97 99 97 92 88 82 75 74 77 80 84 89 91 90 92 93 93 91 86 82 80 76 70 67 67 70 74 80 83 88 93 96 96 96 96 96 98 100 101 101 101 100 99 97 94 92 88 85 84 87 91 92 93 94 93 94 96 99 99
96 98 99 100 100 100 99 96 93 89 82 81 90 96 95 94 94 96 100 100 95 92 93 95 96 92 85 77 68 62 61 61 61 63 68 74 84 95 98 96 94 97 100 101 100 101 100 97 96 96 96 95 96 97 96 95 95 97 98 97 99 102 103
101 101 100 101 101 101 101 100 97 97 95 95 100 102 100 101 101 100 101 102 99 96 96 96 97 97 96 94 90 85 80 75 68 64 60 58 66 83 96 100 97 97 100 102 101 101 102 101 100 101 101 101 101 101 100 100 100 100 101 101 102 103 102
102 102 100 101 101 101 104 104 100 100 100 100 101 101 101 102 102 101 102 102 100 100 101 100 97 94 93 94 95 96 94 90 87 85 80 73 67 71 81 92 100 102 102 102 102 101 101 101 101 102 102 102 102 102 101 101 102 102 102 103 103 102 101
102 101 101 100 98 100 103 103 100 99 100 101 100 100 101 101 100 100 103 100 94 92 96 98 99 99 97 97 100 102 101 98 96 93 90 87 83 79 78 84 95 101 101 102 103 102 102 101 101 102 102 103 102 102 100 99 99 100 102 103 102 101 101
99 100 102 100 99 101 101 100 99 99 100 100 100 101 102 101 100 101 102 96 86 82 85 91 98 101 100 99 100 102 102 101 102 102 100 97 95 93 91 91 94 98 100 101 102 102 102 102 101 102 103 103 102 101 101 100 100 100 102 103 102 101 101
100 101 102 100 100 101 100 100 101 101 100 101 101 101 101 99 100 103 100 88 77 77 82 88 95 99 100 100 102 102 101 100 101 102 102 102 101 100 99 98 97 96 98 101 102 101 101 101 101 101 102 102 102 102 101 101 102 102 101 102 101 100 101
101 104 102 100 101 101 101 101 101 101 101 101 99 100 102 102 101 99 92 83 80 88 94 97 99 101 101 101 103 103 102 102 103 101 100 101 102 101 101 101 100 100 101 104 104 102 101 100 100 101 101 102 104 104 102 101 101 101 100 101 100 100 100
91 95 99 101 100 99 101 101 100 101 102 100 100 102 100 91 80 73 73 78 88 98 101 101 102 103 101 101 103 103 102 103 103 102 101 100 99 99 98 98 99 101 103 105 105 104 102 100 100 100 100 101 103 104 103 102 101 100 100 100 100 100 100
91 88 92 96 97 100 102 99 96 99 99 97 101 101 87 74 72 75 78 83 91 99 102 103 104 105 103 103 103 100 98 100 102 104 105 101 98 96 94 92 95 99 101 102 104 104 103 102 101 101 101 101 102 102 102 102 101 101 102 100 100 101 100
101 92 85 83 87 97 102 96 93 99 100 99 102 98 83 80 93 100 97 95 98 101 103 103 104 105 105 105 104 98 93 93 97 101 103 100 96 95 92 90 94 100 101 100 101 102 102 104 103 101 101 103 103 101 101 101 101 101 102 102 101 100 100
Wind_Speed
39 39 39 40 40 41 42 42 42 43 43 43 45 45 44 43 41 43 45 43 42 43 42 42 43 44 45 42 40 40 40 39 39 37 37 36 34 34 33 30 25 17 13 12 14 17 18 19 21 21 22 23 24 25 26 27 26 25 24 24 24 24 23
38 38 38 38 39 40 41 42 43 42 42 43 44 44 43 43 41 43 44 42 42 43 41 41 43 45 44 41 41 41 39 38 38 36 36 36 34 34 34 33 30 23 17 15 16 19 20 20 21 23 23 23 24 25 25 26 26 25 25 25 25 25 25
36 37 36 37 38 39 39 41 42 42 42 43 45 44 43 43 42 43 44 43 43 43 42 41 43 44 43 39 39 41 40 38 37 36 36 36 36 35 35 35 34 28 23 19 18 21 23 24 24 25 25 25 25 24 24 26 26 26 26 26 25 26 27
34 34 35 35 37 37 38 39 40 41 42 44 45 45 45 44 43 44 44 44 45 43 42 42 43 44 42 39 39 40 39 37 36 35 35 36 35 35 35 36 36 34 29 24 19 20 24 26 26 26 26 26 25 25 26 27 27 27 27 27 27 28 29
31 32 33 34 36 36 37 38 39 40 42 44 44 44 45 44 44 44 45 45 45 44 42 42 43 44 41 38 39 39 38 37 36 36 35 35 35 34 33 34 36 38 34 27 23 20 21 24 26 26 26 27 28 27 26 27 28 28 28 29 29 29 28
26 28 30 32 33 35 35 36 37 38 40 42 42 43 43 43 43 43 44 44 43 43 42 42 43 43 40 38 40 40 38 37 37 37 36 36 35 34 32 31 33 35 33 30 27 22 20 22 25 25 26 28 29 29 28 27 27 28 29 29 28 28 27
20 22 24 27 29 30 32 33 34 36 37 39 39 40 41 41 41 41 41 42 42 42 41 42 43 42 40 40 41 41 40 38 38 38 38 38 36 33 32 31 30 31 31 30 28 23 21 23 24 26 27 27 28 28 28 27 26 27 28 28 28 28 27
18 18 19 21 22 25 27 28 30 32 33 35 36 37 39 39 39 39 39 40 41 40 40 41 41 41 40 41 42 43 42 41 40 38 37 38 36 33 32 31 30 29 29 29 27 24 22 23 24 25 24 23 24 24 26 27 27 27 27 27 28 28 27
18 18 18 17 17 18 20 21 24 26 27 30 32 34 35 36 37 37 37 38 38 38 38 39 39 40 40 41 42 43 43 42 42 41 39 37 36 35 33 32 30 29 28 26 24 23 21 21 23 25 23 22 25 27 27 27 27 27 27 25 26 27 26
18 17 17 17 16 16 15 16 17 19 20 22 25 28 31 32 33 34 34 35 35 35 36 36 37 38 39 40 41 42 42 42 43 44 43 41 39 38 36 33 30 29 28 25 23 23 22 20 21 25 27 27 29 30 28 25 26 27 25 21 21 23 25
18 17 17 17 17 16 15 15 14 15 16 17 18 21 25 28 30 31 32 32 33 33 33 33 34 35 36 37 38 39 40 41 43 44 45 44 42 42 41 38 34 31 29 27 25 24 24 23 22 25 28 30 29 28 27 27 27 25 21 19 17 16 19
19 18 17 17 17 16 16 15 14 14 14 14 14 15 19 23 26 28 29 31 31 31 31 30 31 32 33 35 36 37 38 39 41 43 44 44 44 44 44 44 41 37 33 31 28 26 26 27 26 24 28 31 29 28 28 27 27 25 24 23 21 18 18
20 19 18 18 17 17 16 15 14 14 14 13 13 14 16 20 23 26 27 28 29 30 29 29 29 30 31 32 34 35 35 36 37 39 41 43 43 43 44 45 44 40 38 38 35 31 30 32 30 27 30 32 31 29 28 26 26 27 27 26 26 26 25
20 19 18 18 18 18 17 16 15 14 13 13 13 14 15 18 21 23 26 28 28 28 29 29 28 28 29 30 31 33 33 34 34 35 36 39 40 41 42 42 41 38 37 37 37 36 35 35 34 33 33 33 31 31 30 29 28 29 30 30 31 31 29
18 18 18 18 18 18 17 16 15 14 14 14 14 14 15 17 19 20 22 25 28 28 29 29 29 29 29 29 30 32 33 33 33 33 33 35 37 39 39 39 41 40 38 36 37 39 39 36 35 35 34 32 31 32 32 31 30 30 30 30 29 27 26
18 18 18 17 17 17 17 16 14 14 14 14 14 14 15 16 17 18 18 19 23 26 28 28 29 29 29 30 31 32 32 32 33 33 32 33 34 36 36 37 40 40 37 36 37 39 39 37 36 35 34 33 32 32 32 30 29 28 26 24 22 21 22
18 17 17 16 16 17 17 16 15 15 15 14 14 14 15 16 17 17 17 16 17 20 24 26 27 29 30 30 31 31 30 30 30 32 33 32 32 32 33 35 36 34 32 33 34 35 36 37 35 32 31 32 32 33 33 30 29 27 26 22 16 14 18
18 17 16 16 16 17 17 17 16 16 16 15 15 14 16 18 17 16 15 15 14 15 19 22 23 24 27 28 29 29 28 27 29 32 33 32 31 30 31 31 31 31 31 31 31 32 33 33 31 29 28 29 30 31 32 33 32 30 28 25 19 16 17
17 17 16 17 17 17 18 18 17 17 17 17 16 16 17 18 17 15 14 13 12 12 13 16 18 19 21 23 25 27 27 27 28 31 33 32 30 29 30 30 29 31 34 34 33 33 33 32 31 30 29 30 29 29 32 35 35 33 31 28 24 22 16
17 17 16 16 17 17 17 18 18 17 17 17 17 17 17 17 16 15 14 14 13 13 13 13 15 16 17 18 21 22 23 25 28 30 32 33 31 30 31 32 32 34 35 35 36 37 37 36 35 33 32 31 29 29 31 32 32 33 34 32 28 25 20
17 18 17 17 17 17 17 17 17 17 17 17 17 16 16 16 15 15 15 15 15 13 13 13 14 15 16 17 19 20 22 25 27 29 31 33 34 35 35 33 34 36 35 35 36 36 36 36 35 34 34 33 32 32 32 32 31 30 33 35 32 27 24
19 19 19 19 18 18 17 17 16 17 17 17 17 16 16 16 16 15 15 15 14 13 13 14 15 16 17 18 19 20 22 25 27 28 30 31 33 35 35 33 33 34 34 34 33 33 32 32 33 33 33 33 34 35 36 37 37 35 34 34 35 32 28
20 21 21 21 20 19 18 18 17 17 17 17 17 16 16 16 16 16 15 15 14 13 12 12 13 14 16 18 19 21 23 25 27 29 29 28 29 30 31 32 33 33 32 31 31 29 29 30 31 31 31 32 33 34 36 37 39 40 38 36 34 34 33
20 20 20 21 22 22 21 20 19 18 17 17 17 16 17 17 16 16 16 16 16 16 16 16 15 14 15 17 18 19 21 22 25 27 28 29 29 28 27 27 28 29 29 29 29 28 28 29 30 31 32 33 34 34 34 34 34 35 36 36 36 35 35
20 20 20 21 22 23 23 21 20 18 17 17 17 17 18 18 18 18 18 19 20 20 20 20 19 19 19 20 21 21 20 20 21 21 22 23 24 24 24 22 21 21 22 23 25 26 27 28 30 32 34 36 35 33 31 30 30 30 31 32 32 33 34
20 21 21 21 21 21 20 19 19 19 18 18 18 19 19 20 21 21 21 22 22 22 22 22 21 20 21 22 24 24 24 24 24 23 22 21 21 21 22 21 20 19 19 19 20 22 24 27 28 31 33 34 33 31 30 29 29 29 29 29 29 30 32
20 21 20 18 17 17 17 17 18 19 20 21 21 22 23 22 23 24 23 22 21 21 21 21 21 22 21 21 21 22 23 24 25 26 26 25 23 22 22 22 22 22 22 21 20 19 21 23 25 26 28 29 29 30 31 31 30 29 29 29 29 27 28
20 18 15 14 15 16 16 17 18 20 21 23 23 24 24 22 23 24 22 20 20 19 18 18 19 20 20 20 20 21 22 23 23 24 25 25 24 23 22 23 23 23 23 23 22 20 18 18 19 20 22 24 26 27 28 29 28 28 29 29 26 24 23
17 15 14 14 15 16 16 16 17 19 20 22 21 21 22 21 22 22 19 16 16 16 15 15 16 17 19 19 20 19 20 21 22 23 23 23 22 22 22 22 22 22 23 23 23 22 21 19 19 20 21 22 24 25 26 26 27 28 28 26 24 23 23
14 15 16 16 16 16 14 14 17 18 19 21 21 21 21 19 18 18 17 16 15 15 14 13 13 14 15 16 17 17 18 19 20 21 22 22 22 21 21 22 23 23 23 23 23 24 24 23 22 22 22 23 23 24 25 26 27 28 27 24 23 23 22
13 15 16 16 16 15 14 14 16 18 19 20 20 20 19 17 16 17 19 19 17 16 14 14 13 13 13 14 14 14 16 17 18 18 19 21 21 21 20 20 22 23 23 23 23 23 24 25 25 24 24 24 24 24 25 27 28 27 26 25 23 22 22
15 17 17 16 16 16 16 16 17 18 19 19 19 19 20 18 17 18 19 19 18 15 14 13 13 13 13 14 14 14 15 16 16 17 17 18 19 20 20 20 21 22 23 23 23 22 22 22 23 24 25 25 26 25 24 26 27 26 25 25 24 23 23
15 17 17 16 16 16 17 18 18 18 18 18 18 19 20 19 17 17 18 18 17 16 14 13 13 13 13 13 13 14 14 14 14 15 16 15 15 16 18 20 21 22 22 23 22 22 21 21 22 23 23 24 25 25 23 23 25 26 26 24 22 22 22
18 17 16 15 16 17 17 17 17 18 18 18 18 19 20 19 17 16 16 17 18 17 15 14 14 13 14 14 14 14 14 14 14 14 15 15 15 16 17 17 18 19 21 22 22 22 22 21 22 23 23 22 22 23 22 22 23 24 24 22 21 21 21
19 17 16 15 16 16 16 16 17 17 17 17 17 18 19 18 18 18 19 19 19 17 16 15 15 14 14 14 14 15 15 16 15 15 15 15 15 16 17 17 17 17 18 19 21 22 22 21 21 22 23 23 22 22 21 21 21 23 24 24 23 22 21
17 16 15 15 16 15 15 16 17 17 16 16 16 17 17 18 19 19 18 18 18 17 16 15 15 15 14 14 14 15 16 16 16 16 15 15 15 15 16 17 16 16 17 17 17 19 21 22 21 22 22 22 22 22 22 22 22 23 25 25 24 23 22
Wind_Direction
254 252 250 248 247 246 244 243 242 239 237 235 236 236 235 235 233 232 234 235 234 233 232 232 233 234 234 233 232 232 232 231 230 229 228 228 227 226 226 224 222 228 239 227 217 218 217 220 222 222 223 225 225 224 225 231 235 236 237 239 242 246 250
258 255 253 250 248 247 245 244 243 240 237 235 236 236 235 234 232 232 234 233 233 233 231 231 232 234 234 231 231 232 231 230 228 226 226 225 224 225 226 223 220 223 233 231 220 216 217 218 220 221 222 223 224 223 224 228 231 233 236 239 242 247 253
262 259 256 254 252 250 247 245 243 241 237 236 236 235 235 234 232 232 233 232 233 233 231 230 232 233 233 230 229 231 230 229 228 224 224 224 223 225 226 224 220 221 227 231 226 220 217 216 217 222 223 224 225 225 225 229 232 234 236 239 244 250 256
267 264 261 258 256 254 251 248 245 242 238 237 237 236 236 235 233 233 233 233 233 233 230 229 231 233 232 228 227 230 229 227 226 224 222 223 223 224 226 225 222 221 225 230 230 223 219 218 218 221 222 221 224 225 227 230 233 234 237 241 247 254 259
275 270 266 263 261 259 256 252 248 243 241 239 238 237 237 236 235 234 234 235 234 234 232 230 231 233 231 226 226 228 227 224 224 222 221 222 221 222 223 223 222 223 224 227 229 223 218 219 219 219 220 220 221 224 226 229 233 236 241 246 252 256 260
284 278 273 270 268 264 261 258 253 247 244 242 239 238 238 237 236 236 236 236 236 235 233 232 233 233 230 226 225 226 225 223 222 221 220 220 220 219 219 219 220 222 222 225 230 225 215 214 214 215 218 220 221 223 225 229 235 241 246 249 253 255 257
301 292 285 279 276 272 268 264 259 253 248 245 242 239 238 238 237 237 237 237 237 237 235 234 234 234 231 228 227 227 225 222 220 220 219 219 218 216 215 216 217 218 218 222 227 225 217 213 213 215 218 221 222 224 228 230 234 240 243 245 249 253 255
319 312 304 296 289 283 278 271 266 260 254 249 244 241 239 239 237 237 237 238 239 238 237 236 235 234 233 231 230 229 227 223 220 218 218 219 218 214 213 214 214 214 215 218 221 222 219 213 212 213 216 218 215 215 223 227 228 235 240 243 247 251 253
321 319 316 311 305 297 289 280 273 267 261 255 249 244 241 240 239 238 238 239 239 239 238 237 236 236 234 233 233 232 229 227 223 220 218 217 214 212 212 213 212 212 212 214 217 219 215 208 210 210 207 206 206 210 219 222 223 231 239 242 246 250 251
320 319 318 316 314 309 304 295 286 278 270 263 257 251 247 243 241 240 240 240 240 240 239 238 237 237 236 235 234 233 231 229 227 224 223 220 215 212 211 210 210 211 212 211 213 215 210 205 210 210 206 208 213 216 219 219 220 228 234 235 242 250 252
326 324 322 320 318 317 315 310 305 296 286 277 268 260 254 249 246 243 242 241 241 241 240 239 238 237 236 235 234 233 232 231 229 228 226 224 221 219 216 213 211 211 210 210 214 215 211 210 214 212 210 214 217 216 217 220 221 223 224 223 229 245 252
330 329 328 326 323 323 322 318 316 311 304 295 282 269 261 256 252 248 245 243 242 242 241 239 238 236 235 234 233 232 231 230 230 229 227 226 225 224 224 222 219 217 214 211 214 216 215 216 217 213 212 215 216 216 218 221 222 222 223 224 227 235 243
331 331 332 332 330 329 327 325 323 319 314 306 295 282 272 265 260 253 250 248 245 243 241 239 237 235 233 232 232 231 229 227 226 227 226 226 226 226 227 227 225 224 223 220 217 217 219 220 216 213 216 219 218 216 216 217 219 223 225 226 231 237 242
333 333 334 334 334 332 332 332 331 327 321 312 303 294 283 277 272 263 255 252 249 246 243 240 236 233 232 231 229 228 226 224 222 222 222 223 224 225 227 227 226 225 227 226 223 223 226 225 222 223 226 227 223 220 220 218 220 225 228 232 239 245 247
337 336 336 335 335 334 334 336 337 334 327 319 311 304 295 290 288 281 267 257 252 247 244 242 237 234 232 230 228 227 225 223 221 219 219 220 222 224 225 226 227 225 225 226 227 229 230 230 230 233 234 232 229 229 231 233 235 238 239 240 244 246 244
342 341 340 338 339 339 338 340 342 340 336 330 322 316 312 307 304 301 291 273 259 251 246 242 237 234 232 229 229 229 225 223 221 219 219 220 222 225 226 227 229 228 226 226 228 231 233 235 238 239 239 239 236 235 237 237 238 239 236 233 237 239 238
345 346 345 344 345 346 344 346 350 348 345 341 335 329 328 328 325 321 313 298 278 261 252 245 239 235 233 230 230 229 224 219 219 219 220 222 223 224 226 229 230 228 226 227 229 232 236 238 239 237 237 239 239 240 239 230 223 223 220 219 226 233 233
345 348 351 351 351 352 350 349 352 355 352 349 345 342 340 340 341 338 330 318 298 272 256 248 242 237 235 233 231 229 222 216 216 219 221 222 223 225 226 228 228 227 227 229 231 234 236 237 236 230 228 229 229 232 233 228 225 224 218 216 223 229 232
348 348 351 353 351 352 352 348 347 350 351 348 346 345 345 347 348 348 344 336 323 300 276 261 249 240 236 236 236 232 226 220 219 219 221 222 222 224 227 227 227 227 229 228 230 233 235 237 236 233 230 230 227 225 225 228 232 228 218 216 222 224 224
349 346 345 347 347 348 350 347 343 342 345 346 343 342 343 345 347 346 342 336 328 316 303 290 275 260 246 240 239 236 232 230 227 224 224 223 221 224 229 229 228 230 231 230 231 234 235 236 236 235 234 233 232 229 227 228 231 227 222 222 224 220 217
350 345 340 341 342 343 345 345 341 336 337 340 340 339 339 338 338 336 329 322 317 307 296 291 288 281 268 256 249 244 240 241 241 236 230 224 224 230 234 231 229 231 232 232 234 236 236 236 236 236 236 236 235 234 232 230 232 232 227 226 226 223 220
352 348 343 342 343 344 347 349 347 342 339 341 340 338 335 332 329 325 321 319 316 308 297 288 282 279 276 269 263 257 251 251 252 250 242 234 231 235 235 231 231 233 231 230 231 232 233 235 236 236 238 239 239 239 239 237 239 240 237 232 230 229 227
355 353 349 346 348 353 356 355 354 352 348 347 344 339 334 330 326 322 319 318 314 309 306 301 292 283 276 269 263 260 258 258 258 258 256 251 245 242 236 231 230 229 227 226 226 227 228 230 232 234 236 237 238 240 242 242 242 242 240 238 236 235 235
354 351 348 345 344 348 352 352 351 350 347 346 344 339 334 329 326 323 319 314 309 303 298 294 291 287 281 272 266 266 267 265 263 263 264 263 261 259 252 243 234 227 222 221 220 221 223 226 227 230 233 237 240 243 245 244 244 244 241 240 240 239 239
350 347 343 338 336 339 345 348 350 350 349 348 344 340 335 330 325 323 318 312 307 303 298 292 286 282 278 274 274 277 279 277 275 275 275 275 273 271 266 258 248 237 225 218 217 219 222 224 226 228 233 238 242 243 241 239 240 242 242 242 241 240 239
347 343 335 330 331 336 343 349 351 350 348 347 344 341 338 334 329 326 322 316 311 308 306 300 294 289 284 278 276 277 278 279 279 280 280 280 279 275 268 260 254 247 237 228 223 222 223 226 229 231 234 237 237 236 235 234 234 236 238 240 240 239 240
338 331 326 329 337 343 348 350 349 347 346 344 341 337 334 332 331 329 326 322 319 317 313 308 303 297 292 287 283 279 278 278 277 277 277 275 274 274 272 265 257 250 245 241 236 232 229 229 229 230 230 230 229 230 232 233 233 233 235 237 237 236 239
327 328 337 350 354 351 348 345 344 343 340 336 333 331 330 330 331 331 331 331 328 323 316 311 308 305 300 297 294 290 286 283 281 280 278 274 270 269 270 268 262 252 246 243 240 238 235 230 225 223 222 222 223 226 229 230 230 230 233 234 229 226 231
330 347 5 8 358 351 345 339 339 339 334 330 330 328 327 327 328 332 339 343 340 333 324 314 310 307 302 299 297 294 292 291 290 289 286 282 276 269 266 266 262 253 246 242 238 236 235 231 226 223 220 218 219 223 226 228 227 228 229 226 220 221 227
345 359 5 1 355 350 341 333 335 335 331 331 331 329 330 331 330 339 352 351 340 337 340 339 331 320 312 307 301 296 294 293 292 291 290 290 287 280 271 266 263 258 251 244 238 235 233 231 229 225 220 215 215 220 224 226 227 228 226 220 216 221 229
354 357 0 358 353 348 342 338 340 338 334 334 333 337 348 348 339 347 360 355 344 343 351 355 354 348 342 337 329 320 315 310 305 299 293 291 290 287 281 272 266 263 260 253 245 239 234 230 227 223 219 216 216 218 220 221 224 225 224 221 220 222 227
358 357 358 357 354 351 349 347 345 342 340 339 337 345 359 358 345 349 355 349 346 354 2 1 357 351 347 345 340 335 332 328 324 319 313 305 295 288 285 279 272 269 266 260 253 245 237 231 226 223 221 221 219 218 216 215 216 217 218 220 221 223 226
1 360 358 357 356 355 352 350 349 348 348 346 345 352 360 357 349 350 352 351 357 8 10 5 1 354 348 344 339 334 334 333 333 333 332 328 318 308 301 295 287 279 271 264 258 252 244 237 232 228 226 224 221 218 215 213 213 214 215 216 218 220 223
358 3 3 0 358 356 354 354 355 356 353 351 353 359 359 354 349 351 358 8 17 18 12 7 4 360 355 351 346 342 341 339 337 336 335 335 332 328 325 320 311 297 282 270 263 257 250 243 238 233 229 226 222 220 218 215 213 212 212 213 215 219 222
352 0 4 4 3 1 360 360 360 358 355 355 358 1 1 2 6 8 9 14 19 18 13 10 5 1 360 358 354 351 348 345 342 339 337 337 335 331 329 328 326 319 304 286 271 260 253 248 242 236 232 229 224 220 218 215 213 213 213 214 216 217 220
350 356 360 5 9 6 2 2 1 359 357 359 2 6 10 15 18 15 11 10 12 11 9 8 3 358 355 353 352 351 349 345 342 339 336 335 335 334 332 329 327 327 324 311 290 271 259 251 244 239 234 230 226 224 221 219 216 215 216 216 216 217 218